Hourly Weather Roundup
Issued by NWS Central Illinois

Home | Current Version | Previous Version | Text Only | Print | Product List | Glossary On
Versions: 1 2 3 4 5 6 7 8 9 10 11 12 13 14 15 16 17 18 19 20 21 22 23 24 25 26 27 28 29 30 31 32 33 34 35 36 37 38 39 40 41 42 43 44 45 46 47 48 49 50
000
NZUS43 KILX 290610
HWRILX

AREA WEATHER ROUNDUP
NATIONAL WEATHER SERVICE, LINCOLN IL
100 AM CDT SUN MAR 29 2015


CITY           SKY/WX    TMP DP  RH WIND       PRES   REMARKS
BLOOMINGTON    CLEAR     26  20  78 S8        30.27F WCI  18
6HR MIN TEMP:  26; 6HR MAX TEMP:  36;

CHAMPAIGN      CLEAR     28  18  66 S7        30.29F WCI  21
6HR MIN TEMP:  27; 6HR MAX TEMP:  37;

DECATUR        CLEAR     28  19  69 S7        30.29F WCI  21
6HR MIN TEMP:  28; 6HR MAX TEMP:  38;

EFFINGHAM      CLEAR     28  19  68 SE5       30.33S WCI  23
FLORA          CLEAR     28  24  82 SE3       30.33F
6HR MIN TEMP:  28; 6HR MAX TEMP:  38;

GALESBURG      CLEAR     29  21  70 SE8       30.20F WCI  21
JACKSONVILLE   CLEAR     34  22  61 SE10      30.25F WCI  26
6HR MIN TEMP:  32; 6HR MAX TEMP:  40;

LACON          CLEAR     28  17  63 SE7       30.24F WCI  21
6HR MIN TEMP:  28; 6HR MAX TEMP:  38;

LAWRENCEVILLE  CLEAR     28  25  88 CALM      30.34F
6HR MIN TEMP:  28; 6HR MAX TEMP:  39;

LITCHFIELD     CLEAR     31  19  61 SE10      30.27F WCI  22
$$


CITY           SKY/WX    TMP DP  RH WIND       PRES   REMARKS
LINCOLN        CLEAR     31  23  74 S6        30.28F WCI  25
6HR MIN TEMP:  30; 6HR MAX TEMP:  39;

MACOMB         CLEAR     30  23  74 SE10      30.24F WCI  21
MATTOON        CLEAR     29  18  63 S6        30.29F WCI  23
6HR MIN TEMP:  28; 6HR MAX TEMP:  37;

MT CARMEL AP   CLEAR     32  28  86 CALM      30.34F
OLNEY-NOBLE AP CLEAR     27  23  86 CALM      30.33F
PARIS          CLEAR     29  22  74 CALM      30.32S
6HR MIN TEMP:  27; 6HR MAX TEMP:  37;

PEORIA         CLEAR     32  19  58 S7        30.25F WCI  26
6HR MIN TEMP:  31; 6HR MAX TEMP:  40;

PONTIAC        CLEAR     28  20  69 S7        30.29S WCI  21
RANTOUL        CLEAR     28  21  74 S5        30.29F WCI  23
6HR MIN TEMP:  27; 6HR MAX TEMP:  39;

ROBINSON       CLEAR     24  22  91 S3        30.34F
6HR MIN TEMP:  24; 6HR MAX TEMP:  39;

SPRINGFIELD    CLEAR     33  21  61 S12       30.27F WCI  24
6HR MIN TEMP:  31; 6HR MAX TEMP:  39;

TAYLORVILLE    CLEAR     32  21  64 SE10      30.29S WCI  24
$$

...REGIONAL REPORTS...


CITY           SKY/WX    TMP DP  RH WIND       PRES   REMARKS
CHICAGO O`HARE PTCLDY    23  14  68 S7        30.25F WCI  15
KANKAKEE       CLEAR     28  15  58 SE6       30.29S WCI  21
MOLINE         CLEAR     30  17  58 S13       30.18F WCI  20
MOUNT VERNON   CLEAR     30  18  59 CALM      30.32S
PITTSFIELD     CLEAR     34  23  64 SE9       30.24F WCI  27
QUINCY         CLEAR     33  20  58 SE10      30.20F WCI  25
ROCKFORD       MOCLDY    30  17  58 S12       30.23F WCI  20
$$


CITY           SKY/WX    TMP DP  RH WIND       PRES   REMARKS
BURLINGTON     CLEAR     33  20  58 S10       30.18F WCI  25
CEDAR RAPIDS   PTCLDY    32  18  56 S13       30.11F WCI  22
DES MOINES     CLEAR     38  23  55 S17       30.04F WCI  28
KIRKSVILLE     CLEAR     34  25  69 SE16      30.13F WCI  24
OTTUMWA        CLEAR     34  19  54 S17       30.09F WCI  23
ST LOUIS       CLEAR     38  15  39 SE9       30.27F WCI  31
$$


CITY           SKY/WX    TMP DP  RH WIND       PRES   REMARKS
TERRE HAUTE    CLEAR     26  19  74 SE5       30.33F WCI  20
EVANSVILLE     CLEAR     30  20  66 CALM      30.36S
INDIANAPOLIS   CLEAR     26  13  57 SE6       30.32S WCI  19
LAFAYETTE      CLEAR     27  15  61 SE3       30.32S
MADISON        PTCLDY    32  15  49 S10       30.16F WCI  24
MILWAUKEE      PTCLDY    25  12  58 S8        30.22F WCI  16
$$




USA.gov is the U.S. government's official web portal to all federal, state and local government web resources and services.